GW0821 Weather Reports


time (UTC)temp
F
wind
direction
speed
knots
gust
knots
rain 1hr
in
rain 24hr
in
rain mn
in
humidity
%
barometer
mb
20260902201554 73 0 0.0 0.9 0.00 0.00 0.00 71 1021.8
20260902200055 74 0 0.0 0.0 0.00 0.00 0.00 69 1021.6
20260902194549 74 0 0.0 0.0 0.00 0.00 0.00 68 1021.5
20260902193046 75 0 0.0 0.0 0.00 0.00 0.00 67 1021.3
20260902191553 75 262 0.0 1.7 0.00 0.00 0.00 66 1021.2
20260902190055 76 219 0.9 3.5 0.00 0.00 0.00 66 1020.9
20260902184549 77 0 0.9 2.6 0.00 0.00 0.00 64 1020.8
20260902183111 77 164 2.6 5.2 0.00 0.00 0.00 62 1020.6
20260902181602 78 165 0.9 4.3 0.00 0.00 0.00 60 1020.5
20260902180051 79 150 0.0 5.2 0.00 0.00 0.00 58 1020.3
20260902174551 80 240 0.9 5.2 0.00 0.00 0.00 57 1020.2
20260902173104 81 192 1.7 4.3 0.00 0.00 0.00 55 1020.2
20260902171554 83 147 3.5 7.0 0.00 0.00 0.00 54 1020.2
20260902170056 82 168 2.6 6.1 0.00 0.00 0.00 55 1020.0
20260902164602 84 151 2.6 9.6 0.00 0.00 0.00 53 1019.9
20260902163051 84 141 4.3 12.2 0.00 0.00 0.00 52 1019.9
20260902161551 85 141 4.3 12.2 0.00 0.00 0.00 51 1019.9
20260902160047 86 256 4.3 13.9 0.00 0.00 0.00 50 1019.9
20260902154555 86 184 4.3 13.0 0.00 0.00 0.00 49 1020.1
20260902153059 87 188 3.5 10.4 0.00 0.00 0.00 48 1020.0
20260902151549 87 113 3.5 9.6 0.00 0.00 0.00 46 1020.0
20260902150048 87 163 4.3 11.3 0.00 0.00 0.00 46 1019.9
20260902144552 87 144 4.3 8.7 0.00 0.00 0.00 46 1019.9
20260902143053 87 208 3.5 12.2 0.00 0.00 0.00 46 1020.2
20260902141549 87 136 4.3 12.2 0.00 0.00 0.00 46 1020.4
20260902140100 87 155 4.3 11.3 0.00 0.00 0.00 46 1020.4
20260902134554 87 206 4.3 11.3 0.00 0.00 0.00 45 1020.5
20260902133047 87 154 5.2 13.0 0.00 0.00 0.00 45 1020.6
20260902131549 86 174 4.3 12.2 0.00 0.00 0.00 46 1020.6
20260902130044 86 159 3.5 12.2 0.00 0.00 0.00 46 1020.6
20260902124553 86 165 6.1 14.8 0.00 0.00 0.00 45 1020.6
20260902123053 87 165 5.2 10.4 0.00 0.00 0.00 44 1020.7
20260902121549 87 170 6.1 12.2 0.00 0.00 0.00 44 1020.6
20260902120057 88 155 4.3 10.4 0.00 0.00 0.00 44 1020.3
20260902114554 88 206 3.5 9.6 0.00 0.00 0.00 41 1020.4
20260902113049 87 164 2.6 7.0 0.00 0.00 0.00 38 1020.3
20260902111602 87 215 2.6 9.6 0.00 0.00 0.00 39 1020.4
20260902104605 86 190 2.6 7.0 0.00 0.00 0.00 47 1020.5
20260902103122 85 293 2.6 5.2 0.00 0.00 0.00 48 1020.6
20260902101604 85 117 0.9 2.6 0.00 0.00 0.00 50 1020.7
20260902100053 84 0 0.9 2.6 0.00 0.00 0.00 51 1020.8
20260902094552 83 146 0.9 2.6 0.00 0.00 0.00 53 1020.9
20260902093046 82 93 0.9 3.5 0.00 0.00 0.00 55 1020.9
20260902091552 81 259 0.0 3.5 0.00 0.00 0.00 59 1020.8
20260902090052 79 329 0.9 3.5 0.00 0.00 0.00 62 1020.9
20260902084554 78 251 0.9 5.2 0.00 0.00 0.00 66 1020.9
20260902083051 76 14 1.7 4.3 0.00 0.00 0.00 69 1020.8
20260902081555 75 0 0.9 5.2 0.00 0.00 0.00 71 1020.9
20260902080050 74 94 0.0 2.6 0.00 0.00 0.00 73 1020.9
20260902074546 73 74 1.7 4.3 0.00 0.00 0.00 75 1020.8
20260902073047 72 57 0.9 2.6 0.00 0.00 0.00 78 1020.8
20260902071552 71 42 0.9 3.5 0.00 0.00 0.00 80 1020.9
20260902070055 69 0 0.0 0.0 0.00 0.00 0.00 83 1020.9
20260902064558 67 0 0.0 1.7 0.00 0.00 0.00 87 1020.7
20260902063107 65 0 0.0 0.9 0.00 0.00 0.00 91 1020.5
20260902061609 63 0 0.0 0.0 0.00 0.00 0.00 91 1020.5
20260902060057 63 0 0.0 0.0 0.00 0.00 0.00 92 1020.4
20260902054553 62 0 0.0 0.0 0.00 0.00 0.00 92 1020.3
20260902053105 62 0 0.0 0.0 0.00 0.00 0.00 91 1020.3
20260902051606 62 0 0.0 0.0 0.00 0.00 0.00 91 1020.1
20260902050052 62 0 0.0 0.0 0.00 0.00 0.00 91 1020.0
20260902044606 62 0 0.0 0.0 0.00 0.00 0.00 91 1019.9
20260902043103 62 0 0.0 0.0 0.00 0.00 0.00 90 1020.0
20260902041555 63 194 0.0 0.0 0.00 0.00 0.00 91 1020.1
20260902040054 63 0 0.0 0.0 0.00 0.00 0.00 90 1020.2
20260902034551 63 0 0.0 0.0 0.00 0.00 0.00 90 1020.3
20260902033056 63 0 0.0 0.9 0.00 0.00 0.00 90 1020.3
20260902031600 63 0 0.0 0.0 0.00 0.00 0.00 90 1020.3
20260902030056 63 0 0.0 0.9 0.00 0.00 0.00 90 1020.3
20260902024557 63 13 0.0 0.9 0.00 0.00 0.00 90 1020.1
20260902023049 63 0 0.0 0.9 0.00 0.00 0.00 89 1020.0
20260902021552 64 0 0.0 1.7 0.00 0.00 0.00 89 1020.2
20260902020053 64 0 0.0 4.3 0.00 0.00 0.00 90 1020.1
20260902014557 64 0 0.0 0.0 0.00 0.00 0.00 89 1020.0
20260902013107 64 0 0.0 0.0 0.00 0.00 0.00 89 1020.1
20260902011553 64 0 0.0 0.0 0.00 0.00 0.00 89 1020.4
20260902010049 64 0 0.0 0.0 0.00 0.00 0.00 88 1020.4
20260902004549 64 0 0.0 0.0 0.00 0.00 0.00 88 1020.4
20260902003048 64 0 0.0 0.0 0.00 0.00 0.00 88 1020.3
20260902001554 65 0 0.0 0.0 0.00 0.00 0.00 88 1020.4
20260902000051 65 0 0.0 0.0 0.00 0.00 0.00 87 1020.4
20260901234547 65 0 0.0 0.0 0.00 0.00 0.00 87 1020.4
20260901233056 66 0 0.0 0.0 0.00 0.00 0.00 87 1020.2
20260901231605 66 0 0.0 0.0 0.00 0.00 0.00 87 1020.0
20260901230103 66 0 0.0 0.0 0.00 0.00 0.00 87 1019.9
20260901224549 66 0 0.0 0.0 0.00 0.00 0.00 86 1019.9
20260901223054 67 0 0.0 0.0 0.00 0.00 0.00 85 1019.9
20260901221606 67 0 0.0 0.0 0.00 0.00 0.00 84 1019.8
20260901220051 67 0 0.0 0.9 0.00 0.00 0.00 84 1019.8
20260901214556 68 0 0.0 0.9 0.00 0.00 0.00 83 1019.5
20260901213056 68 220 0.0 0.9 0.00 0.00 0.00 83 1019.3
20260901211550 69 0 0.0 0.0 0.00 0.00 0.00 82 1019.2
20260901210051 69 0 0.0 0.9 0.00 0.00 0.00 82 1019.2
20260901204554 69 0 0.0 0.9 0.00 0.00 0.00 82 1019.1
20260901203056 70 0 0.0 0.0 0.00 0.00 0.00 80 1019.0